User: anonymous   Login
Location: Bittelbronn
(48.4454°N, 8.5870°E)
Time: 22:21:14
(UTC+00:00)
Language:

Cosmos 1850 Rocket - Orbit

View from above orbital plane
View from above orbital plane
View from above satellite
View from above satellite

Ground track
Ground track

The orbit data is extracted from the following two-line orbital elements,

1 18096U 87049B   24206.29271107  .00000744  00000-0  25756-3 0  9998
2 18096  74.0419 140.2844 0020729  31.8766 328.3637 14.37302199944205
Epoch (UTC): 24 July 2024 07:01:30
Eccentricity: 0.0020729
inclination: 74.0419°
perigee height: 752 km
apogee height: 782 km
right ascension of ascending node: 140.2844°
argument of perigee: 31.8766°
revolutions per day: 14.37302199
mean anomaly at epoch: 328.3637°
orbit number at epoch: 94420

The dashed part of the orbit path shows where the satellite is in the earth's shadow,  

DLR